When you browse on this site, cookies collect data to enhance your experience and personalize the content and advertising you see.
Visit our Privacy Policy to learn more. By continuing to use the site, you agree to this use of cookies and data.
  • In Austria
  • List of Countries
  • For 7 days
  • Water Temperature
  • Weather Map
  • News
  • Weather Widgets
  • user-avatar
    Login

    Hourly Weather Hlybochok

    Today, 26 January, Sunday

    Time Temperature Precipitation Wind Pressure Humidity
    00:00 -2°C° 0 mm 2 mps 741 mmHg 97%
    01:00 -2°C° 0 mm 2 mps 741 mmHg 97%
    02:00 -1°C° 0 mm 2 mps 741 mmHg 75%
    03:00 -1°C° 0 mm 2 mps 742 mmHg 88%
    04:00 -1°C° 0 mm 2 mps 741 mmHg 93%
    05:00 0°C° 0 mm 1 mps 741 mmHg 96%
    06:00 0°C° 0 mm 1 mps 742 mmHg 96%
    07:00 0°C° 0 mm 1 mps 742 mmHg 95%
    08:00 0°C° 0 mm 1 mps 742 mmHg 94%
    09:00 0°C° 0 mm 1 mps 742 mmHg 93%
    10:00 +1°C° 0 mm 1 mps 743 mmHg 92%
    11:00 +3°C° 0 mm 1 mps 743 mmHg 83%
    12:00 +3°C° 0 mm 1 mps 743 mmHg 81%
    13:00 +4°C° 0 mm 1 mps 742 mmHg 80%
    14:00 +5°C° 0 mm 1 mps 742 mmHg 80%
    15:00 +5°C° 0 mm 1 mps 741 mmHg 83%
    16:00 +5°C° 0 mm 1 mps 741 mmHg 83%
    17:00 +4°C° 0 mm 1 mps 742 mmHg 88%
    18:00 +4°C° 0 mm 1 mps 742 mmHg 94%
    19:00 +2°C° 0 mm 2 mps 741 mmHg 98%
    20:00 +1°C° 0 mm 2 mps 741 mmHg 99%
    21:00 -1°C° 0 mm 2 mps 741 mmHg 100%
    22:00 -1°C° 0 mm 2 mps 741 mmHg 100%
    23:00 +1°C° 0 mm 1 mps 740 mmHg 100%

    Tomorrow, 27 January, Monday

    Time Temperature Precipitation Wind Pressure Humidity
    00:00 +1°C° 0 mm 1 mps 740 mmHg 100%
    01:00 +1°C° 0 mm 1 mps 740 mmHg 100%
    02:00 +1°C° 0 mm 1 mps 740 mmHg 100%
    03:00 +1°C° 0 mm 1 mps 740 mmHg 100%
    04:00 +1°C° 0 mm 1 mps 739 mmHg 99%
    05:00 +1°C° 0 mm 1 mps 739 mmHg 100%
    06:00 +1°C° 0 mm 1 mps 739 mmHg 100%
    07:00 0°C° 0 mm 1 mps 739 mmHg 100%
    08:00 0°C° 0 mm 1 mps 739 mmHg 100%
    09:00 0°C° 0 mm 1 mps 739 mmHg 100%
    10:00 +1°C° 0 mm 1 mps 739 mmHg 99%
    11:00 +3°C° 0 mm 1 mps 739 mmHg 98%
    12:00 +3°C° 0 mm 2 mps 739 mmHg 94%
    13:00 +4°C° 0 mm 2 mps 738 mmHg 96%
    14:00 +5°C° 0 mm 2 mps 738 mmHg 95%
    15:00 +6°C° 0 mm 2 mps 738 mmHg 93%
    16:00 +5°C° 0 mm 2 mps 737 mmHg 94%
    17:00 +5°C° 0 mm 1 mps 737 mmHg 98%
    18:00 +3°C° 0 mm 2 mps 737 mmHg 100%
    19:00 +3°C° 0 mm 2 mps 737 mmHg 99%
    20:00 +2°C° 0 mm 2 mps 737 mmHg 98%
    21:00 +3°C° 0 mm 1 mps 737 mmHg 99%
    22:00 +2°C° 0 mm 2 mps 737 mmHg 100%
    23:00 +2°C° 0 mm 2 mps 737 mmHg 100%

    Day after tomorrow, 28 January, Tuesday

    Time Temperature Precipitation Wind Pressure Humidity
    00:00 +1°C° 0 mm 2 mps 736 mmHg 100%
    01:00 +1°C° 0 mm 2 mps 736 mmHg 99%
    02:00 +1°C° 0 mm 2 mps 736 mmHg 99%
    03:00 +1°C° 0.1 mm 1 mps 735 mmHg 100%
    04:00 +1°C° 0.6 mm 1 mps 735 mmHg 100%
    05:00 +1°C° 0.2 mm 1 mps 735 mmHg 100%
    06:00 +1°C° 0 mm 1 mps 734 mmHg 100%
    07:00 +1°C° 0 mm 1 mps 734 mmHg 100%
    08:00 +1°C° 0 mm 1 mps 734 mmHg 100%
    09:00 -1°C° 0 mm 2 mps 734 mmHg 100%
    10:00 +1°C° 0 mm 2 mps 734 mmHg 100%
    11:00 +1°C° 0 mm 2 mps 734 mmHg 99%
    12:00 +3°C° 0 mm 2 mps 733 mmHg 98%
    13:00 +3°C° 0 mm 3 mps 732 mmHg 98%
    14:00 +4°C° 0 mm 3 mps 732 mmHg 97%
    15:00 +3°C° 0 mm 4 mps 731 mmHg 98%
    16:00 +1°C° 0 mm 4 mps 731 mmHg 99%
    17:00 +1°C° 0 mm 4 mps 730 mmHg 100%
    18:00 +1°C° 0 mm 4 mps 730 mmHg 100%
    19:00 +1°C° 0 mm 5 mps 730 mmHg 100%
    20:00 0°C° 0 mm 5 mps 729 mmHg 100%
    21:00 0°C° 0 mm 5 mps 729 mmHg 100%
    22:00 0°C° 0 mm 5 mps 728 mmHg 100%
    23:00 0°C° 0 mm 5 mps 727 mmHg 100%

    29 January, Wednesday

    Time Temperature Precipitation Wind Pressure Humidity
    00:00 0°C° 0 mm 5 mps 726 mmHg 100%
    01:00 0°C° 0.1 mm 4 mps 726 mmHg 100%
    02:00 0°C° 0 mm 4 mps 725 mmHg 100%
    03:00 0°C° 0 mm 5 mps 724 mmHg 100%
    04:00 0°C° 0.5 mm 5 mps 723 mmHg 100%
    05:00 0°C° 0.7 mm 4 mps 722 mmHg 100%
    06:00 0°C° 0.2 mm 4 mps 721 mmHg 100%
    07:00 +2°C° 4.2 mm 2 mps 721 mmHg 100%
    08:00 0°C° 0.7 mm 5 mps 722 mmHg 100%
    09:00 -3°C° 0 mm 9 mps 723 mmHg 100%
    10:00 -2°C° 0.2 mm 8 mps 724 mmHg 99%
    11:00 -1°C° 0.3 mm 8 mps 725 mmHg 98%
    12:00 -1°C° 0 mm 8 mps 726 mmHg 95%
    13:00 0°C° 0 mm 9 mps 726 mmHg 90%
    14:00 0°C° 0 mm 8 mps 726 mmHg 87%
    15:00 0°C° 0 mm 7 mps 726 mmHg 87%
    16:00 0°C° 0 mm 7 mps 727 mmHg 86%
    17:00 0°C° 0 mm 5 mps 727 mmHg 89%
    18:00 0°C° 0 mm 3 mps 727 mmHg 93%
    19:00 -1°C° 0 mm 2 mps 727 mmHg 94%
    20:00 -1°C° 0 mm 2 mps 727 mmHg 94%
    21:00 -1°C° 0 mm 3 mps 727 mmHg 95%
    22:00 -1°C° 0 mm 3 mps 727 mmHg 96%
    23:00 -1°C° 0 mm 3 mps 727 mmHg 96%

    30 January, Thursday

    Time Temperature Precipitation Wind Pressure Humidity
    00:00 -2°C° 0 mm 4 mps 728 mmHg 96%
    01:00 -2°C° 0 mm 5 mps 728 mmHg 95%
    02:00 -3°C° 0 mm 6 mps 728 mmHg 90%

    31 January, Friday

    Time Temperature Precipitation Wind Pressure Humidity
    Show more